Wind_Speed
24 25 25 26 26 27 27 28 28 28 28 29 30 31 31 30 30 30 30 30 30 29 29 29 28 28 27 26 25 24 24 23 23 22 22 21 20 20 19 19 19 18 18
26 26 27 27 28 29 29 29 30 31 31 32 33 34 34 34 33 33 33 32 32 32 32 31 30 30 29 28 27 27 26 26 25 25 24 23 23 22 21 20 20 20 20
28 28 28 29 30 31 31 32 33 34 34 35 36 37 38 38 37 37 36 36 35 35 35 34 33 33 32 31 31 29 29 28 28 27 27 26 25 24 24 23 22 22 21
30 30 30 31 32 33 33 34 35 36 37 38 39 40 40 40 40 40 39 39 39 38 38 37 37 36 35 35 34 33 32 31 31 30 30 29 28 27 27 26 25 24 24
32 32 33 33 34 35 36 36 37 39 39 40 42 42 43 43 44 44 43 43 42 42 41 41 40 39 38 38 37 36 35 34 34 33 33 32 31 31 30 29 28 27 27
34 35 35 36 37 38 39 39 40 41 42 43 44 45 45 46 46 46 46 47 46 45 45 44 43 43 42 41 40 39 39 38 37 37 36 35 34 34 33 32 32 31 30
37 37 37 38 39 40 41 42 43 43 44 46 47 47 47 48 48 48 49 50 49 49 48 47 47 46 45 44 43 43 42 41 41 40 40 39 38 37 36 35 35 34 34
39 39 40 41 41 42 43 44 45 46 47 48 49 49 49 49 49 50 51 51 51 51 50 50 49 48 48 47 46 46 45 44 44 43 43 42 42 41 40 39 38 38 37
41 42 42 43 44 45 45 45 46 47 48 49 50 51 52 52 52 53 53 54 54 54 53 53 52 51 50 50 49 49 48 47 46 46 45 45 44 45 45 44 42 41 40
42 43 44 45 46 46 46 47 47 48 49 49 50 52 53 54 55 55 55 56 56 56 55 54 54 54 53 51 51 50 50 50 49 48 47 47 47 47 47 47 46 45 44
43 44 45 45 46 46 46 47 47 48 48 49 51 52 54 55 56 57 57 57 57 57 57 57 56 56 55 54 52 52 52 52 51 51 50 49 48 48 48 48 48 47 46
44 44 44 45 45 45 46 46 46 47 48 50 51 52 54 55 56 57 58 57 57 57 56 56 57 56 56 55 54 54 54 53 53 53 51 51 49 49 49 48 49 49 48
45 45 44 44 44 45 45 45 46 47 47 48 50 52 54 55 56 56 57 57 57 56 55 54 53 54 55 54 54 55 55 55 54 54 53 52 50 49 49 48 47 48 48
45 44 44 44 44 44 44 44 44 44 46 47 48 50 51 53 54 55 54 54 54 53 53 51 50 50 50 51 52 52 53 53 54 53 54 53 50 49 49 49 48 48 49
44 43 43 43 43 42 42 42 42 43 43 45 47 47 48 49 50 51 50 50 51 50 49 49 48 47 47 48 48 50 51 51 52 51 52 53 52 53 54 52 52 51 50
42 42 42 41 41 41 41 41 41 41 42 42 43 43 44 45 46 46 46 46 45 45 45 45 45 44 43 44 45 46 46 48 49 50 51 53 53 54 54 54 54 54 54
41 40 40 39 39 39 40 39 39 39 40 40 40 41 42 42 42 42 41 41 39 39 39 39 40 40 39 39 40 41 44 47 47 49 50 51 53 55 54 54 55 55 55
39 38 38 38 38 38 38 38 37 38 38 39 39 39 40 40 39 38 37 35 35 35 34 34 34 35 36 37 38 40 42 44 45 46 48 49 51 53 53 54 55 55 56
36 36 36 36 36 36 36 36 36 37 37 37 37 37 37 37 36 34 33 32 32 32 31 31 31 32 34 35 37 39 41 43 45 46 47 49 50 51 52 53 54 55 56
35 34 34 34 34 34 35 35 35 35 35 35 35 35 34 34 32 31 30 30 29 30 29 30 30 31 33 34 35 36 38 40 43 45 46 47 48 50 51 52 53 54 55
32 32 32 33 33 34 34 34 34 34 34 34 33 32 32 31 30 29 28 27 27 27 27 27 27 28 30 32 33 35 37 39 41 43 45 47 49 50 52 53 54 55 56
30 31 31 32 32 32 32 32 32 32 32 32 31 31 30 30 29 28 28 27 27 26 26 26 27 28 30 32 33 35 37 39 41 43 45 48 50 52 53 55 56 56 57
28 29 30 29 30 30 30 30 30 30 30 30 30 30 29 29 28 28 28 28 27 27 27 28 29 30 32 34 36 37 39 41 43 45 48 50 52 53 55 56 56 57 57
26 27 27 28 28 29 29 30 30 30 30 30 30 30 30 29 29 29 29 29 29 30 30 31 32 34 35 37 38 40 42 44 47 48 50 52 53 54 55 56 56 55 54
25 26 26 27 28 28 29 30 30 31 31 31 31 31 31 31 31 31 31 32 32 33 33 34 35 37 38 40 41 43 45 47 49 50 51 52 53 54 54 54 53 52 50
24 25 26 27 28 29 30 30 31 31 31 32 32 32 32 32 32 33 33 34 35 35 36 37 39 40 42 43 44 46 47 49 50 51 52 52 52 52 50 50 49 48 46
Wind_Direction
290 292 293 293 293 293 293 293 293 292 292 291 291 290 290 290 290 290 289 288 287 286 283 281 279 278 277 276 275 276 275 274 273 273 273 274 274 274 273 273 273 273 272
288 290 291 292 292 292 293 293 293 292 292 291 291 290 289 289 288 287 287 286 285 284 282 280 278 277 275 273 272 272 272 271 270 270 270 271 272 271 270 270 270 270 270
285 287 288 289 289 291 292 293 292 292 292 292 291 290 289 289 287 286 285 285 283 282 280 279 277 275 273 271 270 269 269 268 268 267 267 268 269 269 268 268 267 268 267
284 285 286 287 288 289 291 291 292 292 292 291 290 289 288 288 287 286 284 283 282 281 279 278 276 274 273 271 269 267 267 266 266 266 266 266 266 266 266 266 266 265 265
283 285 286 288 289 290 291 291 290 290 290 290 289 288 288 287 286 285 284 283 281 280 278 276 275 274 272 271 269 268 267 266 265 265 265 265 265 265 265 264 264 264 264
283 285 286 288 289 290 290 290 290 289 289 289 288 288 288 287 287 287 285 284 282 280 278 277 275 274 272 271 269 268 267 266 265 265 265 265 265 265 265 264 264 264 264
282 284 286 287 289 289 290 290 290 290 289 289 289 288 288 288 288 287 286 285 284 282 280 278 276 274 273 271 270 268 267 267 266 265 265 265 264 264 264 264 265 264 264
284 285 286 287 288 289 289 290 290 290 290 290 290 289 289 289 289 287 286 286 285 283 281 279 277 275 273 271 270 269 268 268 267 266 265 265 265 264 264 264 265 265 264
283 285 286 288 288 289 290 290 290 290 290 290 291 291 290 290 288 288 287 286 285 283 281 279 277 275 273 270 269 269 268 267 267 266 265 266 267 266 265 264 265 265 265
281 283 285 286 287 288 289 289 290 291 291 291 291 292 292 291 290 288 287 286 284 283 281 278 275 273 271 269 268 267 267 266 266 266 266 266 267 267 265 265 265 265 265
280 281 283 284 285 287 288 289 290 291 291 292 292 292 292 292 291 290 288 286 284 282 279 276 274 271 269 268 267 265 266 266 266 266 267 267 267 266 265 265 264 264 264
280 281 282 283 285 286 288 289 289 290 291 292 293 293 293 292 291 290 288 286 284 281 278 275 273 270 268 266 265 264 264 264 265 266 267 268 268 266 266 264 264 265 266
280 281 282 283 285 286 288 289 289 291 292 293 294 294 293 292 291 290 290 287 284 281 278 276 273 271 268 266 264 263 262 262 263 264 266 267 267 266 266 266 266 265 267
279 281 282 283 285 286 288 289 291 292 293 294 295 296 295 293 292 292 291 289 287 283 278 276 272 270 268 265 263 262 262 261 262 264 265 266 267 269 271 269 270 269 269
279 281 282 283 285 286 288 290 291 293 294 296 298 299 297 296 296 296 293 290 288 285 281 277 272 269 267 264 263 263 261 260 263 264 265 266 268 270 271 272 273 272 272
278 280 282 283 285 286 288 290 292 294 297 300 302 302 301 301 301 300 296 293 291 288 285 279 273 269 268 265 264 263 262 262 266 265 268 269 270 272 273 274 274 274 275
278 280 282 283 285 286 289 291 293 295 299 301 303 304 304 304 305 304 300 296 293 290 288 283 275 271 270 268 267 267 266 266 268 269 271 272 272 274 275 276 276 276 277
279 281 283 284 286 288 290 291 293 296 300 302 303 305 306 306 307 306 304 301 297 294 293 289 281 276 274 276 275 272 271 269 271 273 274 275 275 276 276 277 277 277 276
279 281 283 285 287 289 291 292 294 298 301 302 304 306 308 308 308 308 307 304 300 297 293 289 285 281 278 280 280 278 274 272 274 276 277 277 278 278 278 278 278 278 278
281 282 284 286 288 290 291 293 295 298 301 303 305 306 308 309 309 309 309 307 303 299 295 292 289 285 284 284 284 281 277 276 277 278 280 280 281 281 281 280 280 280 279
281 283 285 287 289 291 292 294 296 298 301 304 306 307 309 310 310 310 310 308 305 303 300 298 295 291 288 286 286 284 283 282 282 282 283 283 283 284 283 283 283 282 281
283 284 287 290 291 292 294 296 297 299 302 303 305 307 308 310 310 310 310 309 308 305 303 301 298 295 293 291 289 288 288 287 286 285 285 285 284 285 285 285 284 284 283
284 286 289 291 293 294 296 298 299 301 303 304 306 307 309 309 309 309 309 308 307 306 304 302 300 298 296 294 292 291 291 290 289 289 288 288 288 287 287 287 286 285 285
287 289 291 293 294 295 297 299 300 302 303 305 306 306 307 307 307 308 307 306 305 304 303 301 300 298 296 295 294 294 293 292 292 292 291 291 290 289 289 288 287 287 285
287 290 292 294 296 298 299 300 301 302 304 305 305 306 306 307 308 307 307 306 305 304 303 302 301 299 297 296 296 296 295 295 294 294 293 293 292 292 291 289 288 287 286
287 290 293 295 297 299 300 301 302 303 304 305 306 307 307 307 307 307 307 306 306 305 304 303 302 301 300 299 298 297 297 296 296 295 294 294 293 292 291 290 288 288 287
Height
5860 5859 5858 5857 5856 5855 5853 5852 5851 5849 5848 5846 5844 5842 5840 5839 5837 5835 5833 5831 5830 5828 5826 5824 5823 5821 5820 5819 5818 5817 5816 5815 5814 5813 5812 5811 5810 5809 5808 5808 5807 5807 5806
5856 5855 5854 5852 5851 5849 5848 5847 5845 5844 5842 5840 5838 5836 5834 5833 5831 5829 5827 5825 5823 5821 5819 5818 5816 5815 5813 5812 5811 5810 5809 5808 5808 5807 5806 5805 5804 5804 5803 5803 5802 5802 5802
5851 5850 5849 5848 5846 5844 5842 5841 5839 5837 5835 5834 5831 5829 5827 5825 5824 5822 5820 5818 5815 5814 5812 5810 5809 5807 5806 5805 5804 5803 5802 5801 5801 5800 5799 5799 5798 5798 5797 5797 5797 5797 5796
5845 5844 5843 5842 5840 5838 5837 5835 5832 5830 5828 5826 5824 5822 5820 5818 5816 5814 5812 5810 5807 5805 5804 5802 5801 5799 5798 5797 5796 5795 5794 5793 5793 5793 5792 5791 5791 5791 5790 5790 5790 5790 5790
5839 5838 5837 5835 5833 5831 5830 5827 5825 5823 5821 5818 5816 5813 5811 5809 5807 5805 5803 5801 5799 5797 5795 5793 5792 5790 5789 5788 5787 5786 5786 5785 5785 5784 5784 5784 5783 5783 5783 5783 5783 5783 5783
5832 5830 5829 5827 5825 5823 5821 5819 5817 5814 5812 5809 5806 5804 5802 5800 5797 5795 5793 5791 5789 5787 5785 5783 5782 5781 5780 5779 5778 5777 5776 5776 5776 5775 5775 5775 5775 5775 5775 5775 5775 5775 5775
5824 5822 5821 5819 5817 5815 5812 5810 5807 5805 5802 5799 5796 5794 5792 5789 5787 5785 5782 5780 5778 5776 5774 5772 5771 5770 5769 5768 5768 5767 5766 5766 5766 5765 5765 5765 5766 5766 5766 5766 5766 5766 5767
5815 5813 5812 5810 5808 5806 5804 5801 5798 5795 5792 5788 5785 5782 5781 5780 5776 5773 5770 5767 5765 5763 5762 5760 5759 5758 5757 5757 5756 5756 5755 5755 5755 5755 5755 5755 5755 5755 5756 5756 5756 5757 5757
5806 5804 5802 5800 5798 5796 5794 5791 5787 5784 5781 5778 5774 5770 5768 5767 5764 5762 5758 5755 5752 5750 5749 5747 5746 5745 5744 5744 5744 5743 5743 5743 5743 5743 5743 5744 5744 5744 5744 5745 5745 5746 5747
5798 5796 5794 5791 5789 5786 5783 5780 5777 5774 5770 5767 5763 5759 5755 5752 5749 5748 5746 5742 5738 5736 5735 5733 5732 5731 5730 5730 5730 5730 5730 5730 5730 5730 5731 5731 5731 5732 5732 5733 5734 5734 5735
5789 5787 5784 5782 5779 5776 5773 5770 5767 5763 5759 5756 5752 5748 5743 5739 5735 5731 5730 5728 5724 5721 5719 5717 5716 5715 5715 5715 5715 5715 5716 5716 5716 5716 5717 5717 5718 5718 5719 5720 5721 5721 5722
5779 5777 5774 5772 5769 5766 5763 5760 5756 5753 5749 5745 5740 5736 5731 5726 5722 5717 5713 5711 5708 5705 5702 5700 5699 5699 5699 5699 5699 5700 5701 5701 5702 5702 5703 5703 5704 5704 5705 5706 5707 5708 5709
5769 5767 5764 5762 5759 5756 5753 5750 5747 5743 5738 5734 5729 5724 5718 5713 5708 5702 5697 5693 5690 5688 5685 5684 5682 5682 5682 5683 5684 5684 5685 5686 5687 5688 5688 5688 5689 5690 5691 5691 5691 5693 5694
5759 5757 5754 5752 5749 5746 5743 5740 5736 5732 5728 5723 5718 5712 5706 5700 5694 5688 5682 5677 5673 5671 5669 5668 5667 5666 5666 5667 5668 5669 5670 5672 5672 5673 5674 5674 5675 5676 5676 5677 5677 5678 5680
5749 5747 5744 5742 5739 5737 5734 5730 5726 5722 5717 5712 5706 5700 5694 5687 5681 5674 5669 5663 5658 5655 5654 5653 5652 5651 5651 5652 5653 5655 5655 5657 5658 5659 5660 5660 5661 5662 5663 5663 5663 5664 5665
5739 5737 5735 5732 5730 5727 5724 5720 5716 5712 5707 5702 5696 5689 5683 5676 5669 5663 5656 5651 5646 5642 5640 5639 5638 5638 5638 5639 5640 5641 5641 5643 5644 5645 5646 5647 5647 5648 5648 5648 5648 5649 5649
5730 5728 5725 5723 5720 5717 5714 5710 5706 5702 5697 5691 5685 5679 5672 5666 5659 5652 5646 5640 5636 5632 5629 5627 5626 5627 5627 5627 5628 5629 5630 5631 5632 5632 5633 5633 5633 5633 5633 5633 5633 5632 5632
5720 5718 5716 5713 5711 5707 5704 5700 5696 5692 5687 5682 5676 5669 5663 5656 5650 5643 5637 5632 5628 5624 5621 5618 5617 5617 5618 5618 5618 5618 5619 5620 5620 5620 5620 5619 5619 5618 5618 5617 5617 5616 5616
5711 5709 5706 5704 5701 5698 5694 5691 5687 5682 5678 5672 5667 5661 5654 5648 5642 5636 5630 5625 5621 5617 5614 5612 5611 5610 5610 5609 5609 5609 5609 5609 5609 5608 5607 5606 5605 5604 5602 5602 5601 5600 5599
5701 5699 5697 5695 5692 5689 5685 5682 5678 5673 5669 5663 5658 5653 5647 5641 5635 5629 5624 5620 5615 5611 5608 5606 5604 5603 5602 5602 5601 5600 5599 5598 5597 5596 5594 5593 5591 5589 5588 5586 5585 5583 5581
5693 5691 5688 5686 5683 5680 5676 5673 5669 5664 5660 5655 5650 5645 5640 5634 5629 5624 5619 5614 5610 5606 5603 5600 5598 5596 5595 5594 5593 5591 5589 5588 5586 5584 5581 5579 5577 5575 5572 5570 5568 5566 5564
5684 5682 5680 5677 5674 5671 5668 5664 5660 5656 5652 5647 5643 5638 5633 5628 5623 5618 5613 5609 5605 5602 5599 5595 5593 5591 5589 5586 5584 5582 5579 5577 5575 5573 5569 5566 5563 5560 5557 5554 5551 5548 5546
5676 5674 5672 5669 5666 5663 5660 5656 5652 5648 5644 5640 5636 5631 5627 5622 5617 5612 5608 5604 5600 5596 5593 5590 5586 5584 5581 5578 5575 5572 5569 5566 5562 5559 5555 5551 5548 5543 5540 5536 5533 5530 5527
5669 5666 5664 5661 5658 5655 5652 5649 5645 5641 5637 5633 5628 5624 5620 5615 5611 5606 5602 5598 5594 5590 5586 5582 5579 5575 5572 5568 5565 5561 5557 5553 5549 5545 5540 5535 5531 5527 5522 5518 5515 5512 5509
5661 5659 5657 5654 5651 5648 5645 5641 5637 5634 5630 5625 5621 5617 5613 5608 5604 5600 5595 5591 5587 5582 5578 5574 5570 5566 5562 5558 5554 5549 5545 5540 5535 5531 5525 5520 5514 5510 5505 5501 5497 5494 5492
5654 5652 5650 5647 5644 5641 5638 5634 5630 5626 5622 5618 5614 5610 5605 5601 5596 5592 5587 5583 5578 5574 5569 5565 5560 5556 5551 5546 5541 5537 5531 5526 5520 5516 5510 5505 5499 5494 5489 5484 5480 5478 5475